Date String (YYYY-MM-DD hh:mm:ss) UTC,Instrument flags,Ambient pressure (hPa),Sample flow (lpm),Bypass flow (lpm),Sample temperature (°C),Ambient temperature (°C),ASC tube jacket temperature (°C),LED temperature (°C),Box temperature (°C),Sample RH (%),Span deviation,Mass concentration (μg/m³),Mass concentration (μg/m³),Mass concentration (μg/m³)
DateTimeUTC,F1_M11,P_M11,Q1_M11,Q2_M11,T1_M11,T2_M11,T3_M11,T4_M11,T5_M11,U1_M11,ZSPAN_M11,X0_M11,X2_M11,X1_M11
2022-10-22 00:00:00,,0816.3,5.00,0.00,29.7,28.5,00.0,38.5,31.7,07.0,0000.0,0008.22,0002.36,0001.58
2022-10-22 00:01:00,,0816.2,4.99,0.00,29.8,28.6,00.0,38.5,31.7,06.9,0000.0,0008.22,0002.38,0001.58
2022-10-22 00:02:00,,0816.2,5.01,0.00,29.8,28.7,00.0,38.5,31.7,06.9,0000.0,0008.02,0002.37,0001.59
2022-10-22 00:03:00,,0816.1,5.01,0.00,29.8,28.7,00.0,38.5,31.8,06.9,0000.0,0008.00,0002.40,0001.59
2022-10-22 00:04:00,,0816.2,5.00,0.00,29.8,28.8,00.0,38.6,31.8,06.8,0000.0,0007.77,0002.34,0001.59
2022-10-22 00:05:00,,0816.3,5.01,0.00,29.9,28.8,00.0,38.6,31.9,06.9,0000.0,0007.02,0002.28,0001.60
2022-10-22 00:06:00,,0816.2,5.00,0.00,29.9,27.7,00.0,38.6,31.8,06.9,0000.0,0007.20,0002.28,0001.61
2022-10-22 00:07:00,,0816.2,4.99,0.00,29.9,26.7,00.0,38.5,31.7,06.9,0000.0,0007.03,0002.33,0001.60
2022-10-22 00:08:00,,0816.2,5.00,0.00,29.8,26.6,00.0,38.5,31.6,06.8,0000.0,0006.85,0002.33,0001.59
2022-10-22 00:09:00,,0816.2,5.00,0.00,29.7,26.9,00.0,38.5,31.4,06.8,0000.0,0005.42,0002.32,0001.59
2022-10-22 00:10:00,,0816.3,5.01,0.00,29.7,27.2,00.0,38.5,31.4,06.7,0000.0,0005.12,0002.33,0001.60
2022-10-22 00:11:00,,0816.3,5.01,0.00,29.7,27.5,00.0,38.5,31.5,06.7,0000.0,0004.76,0002.30,0001.61
2022-10-22 00:12:00,,0816.3,5.00,0.00,29.7,27.7,00.0,38.5,31.5,06.7,0000.0,0004.86,0002.33,0001.61
2022-10-22 00:13:00,,0816.3,5.00,0.00,29.7,27.9,00.0,38.5,31.6,06.8,0000.0,0004.70,0002.31,0001.60
2022-10-22 00:14:00,,0816.3,4.99,0.00,29.7,28.0,00.0,38.5,31.6,06.7,0000.0,0004.28,0002.24,0001.59
2022-10-22 00:15:00,,0816.3,5.00,0.00,29.7,28.2,00.0,38.5,31.6,06.7,0000.0,0004.50,0002.23,0001.59
2022-10-22 00:16:00,,0816.3,5.00,0.00,29.7,28.3,00.0,38.5,31.6,06.8,0000.0,0004.61,0002.25,0001.58
2022-10-22 00:17:00,,0816.3,4.99,0.00,29.7,28.4,00.0,38.5,31.7,06.9,0000.0,0005.50,0002.28,0001.58
2022-10-22 00:18:00,,0816.3,5.00,0.00,29.7,28.4,00.0,38.5,31.7,06.8,0000.0,0005.91,0002.24,0001.57
2022-10-22 00:19:00,,0816.3,4.99,0.00,29.8,28.5,00.0,38.5,31.7,06.8,0000.0,0006.56,0002.21,0001.58
2022-10-22 00:20:00,,0816.2,4.98,0.00,29.8,28.6,00.0,38.5,31.7,06.9,0000.0,0007.42,0002.21,0001.57
2022-10-22 00:21:00,,0816.3,4.99,0.00,29.8,28.6,00.0,38.6,31.8,06.9,0000.0,0007.31,0002.15,0001.56
2022-10-22 00:22:00,,0816.3,5.00,0.00,29.8,28.7,00.0,38.6,31.8,06.8,0000.0,0007.29,0002.14,0001.55
2022-10-22 00:23:00,,0816.3,5.01,0.00,29.9,28.7,00.0,38.6,31.8,06.8,0000.0,0007.22,0002.10,0001.54
2022-10-22 00:24:00,,0816.3,5.01,0.00,29.9,27.8,00.0,38.6,31.7,06.8,0000.0,0007.04,0002.10,0001.54
2022-10-22 00:25:00,,0816.3,5.00,0.00,29.8,26.5,00.0,38.5,31.6,06.9,0000.0,0007.20,0002.14,0001.56
2022-10-22 00:26:00,,0816.3,4.99,0.00,29.8,26.5,00.0,38.5,31.5,07.0,0000.0,0007.10,0002.20,0001.58
2022-10-22 00:27:00,,0816.3,5.02,0.00,29.7,26.7,00.0,38.5,31.4,07.0,0000.0,0007.18,0002.23,0001.58
2022-10-22 00:28:00,,0816.3,5.00,0.00,29.7,27.0,00.0,38.5,31.4,07.1,0000.0,0006.73,0002.29,0001.60
2022-10-22 00:29:00,,0816.2,5.00,0.00,29.6,27.3,00.0,38.4,31.4,07.1,0000.0,0005.90,0002.30,0001.61
2022-10-22 00:30:00,,0816.2,5.00,0.00,29.6,27.6,00.0,38.5,31.5,07.0,0000.0,0005.39,0002.32,0001.62
2022-10-22 00:31:00,,0816.2,5.00,0.00,29.6,27.7,00.0,38.5,31.5,06.9,0000.0,0004.53,0002.37,0001.64
2022-10-22 00:32:00,,0816.2,5.00,0.00,29.7,27.9,00.0,38.5,31.5,06.9,0000.0,0004.52,0002.39,0001.67
2022-10-22 00:33:00,,0816.2,4.99,0.00,29.7,28.0,00.0,38.5,31.6,06.9,0000.0,0004.95,0002.49,0001.69
2022-10-22 00:34:00,,0816.2,5.00,0.00,29.7,28.1,00.0,38.5,31.6,06.9,0000.0,0005.66,0002.54,0001.70
2022-10-22 00:35:00,,0816.1,4.99,0.00,29.7,28.2,00.0,38.5,31.6,06.9,0000.0,0006.06,0002.58,0001.73
2022-10-22 00:36:00,,0816.2,5.01,0.00,29.7,28.3,00.0,38.5,31.6,06.9,0000.0,0006.59,0002.63,0001.74
2022-10-22 00:37:00,,0816.2,4.99,0.00,29.7,28.4,00.0,38.5,31.7,06.9,0000.0,0006.91,0002.69,0001.76
2022-10-22 00:38:00,,0816.2,4.99,0.00,29.7,28.4,00.0,38.5,31.7,07.0,0000.0,0007.04,0002.72,0001.78
2022-10-22 00:39:00,,0816.2,5.00,0.00,29.8,28.5,00.0,38.5,31.7,06.9,0000.0,0006.95,0002.66,0001.78
2022-10-22 00:40:00,,0816.2,5.01,0.00,29.8,28.5,00.0,38.5,31.7,06.9,0000.0,0007.13,0002.67,0001.78
2022-10-22 00:41:00,,0816.3,5.00,0.00,29.8,28.5,00.0,38.6,31.7,06.9,0000.0,0007.22,0002.67,0001.79
2022-10-22 00:42:00,,0816.3,5.00,0.00,29.8,28.6,00.0,38.6,31.7,06.9,0000.0,0007.21,0002.65,0001.80
2022-10-22 00:43:00,,0816.3,5.01,0.00,29.9,28.6,00.0,38.6,31.8,06.9,0000.0,0007.39,0002.69,0001.80
2022-10-22 00:44:00,,0816.2,5.00,0.00,29.9,28.6,00.0,38.6,31.8,06.9,0000.0,0008.20,0002.60,0001.80
2022-10-22 00:45:00,,0816.3,5.00,0.00,29.9,28.6,00.0,38.6,31.8,06.8,0000.0,0009.36,0002.55,0001.82
2022-10-22 00:46:00,,0816.3,5.00,0.00,29.9,28.6,00.0,38.6,31.8,06.8,0000.0,0009.60,0002.50,0001.82
2022-10-22 00:47:00,,0816.4,5.00,0.00,29.9,27.7,00.0,38.6,31.7,06.8,0000.0,0009.16,0002.43,0001.81
2022-10-22 00:48:00,,0816.4,5.00,0.00,29.9,26.5,00.0,38.6,31.6,06.9,0000.0,0008.95,0002.35,0001.82
2022-10-22 00:49:00,,0816.4,4.99,0.00,29.8,26.5,00.0,38.5,31.5,06.9,0000.0,0008.90,0002.38,0001.82
2022-10-22 00:50:00,,0816.4,5.00,0.00,29.7,26.7,00.0,38.5,31.4,06.9,0000.0,0008.71,0002.40,0001.83
2022-10-22 00:51:00,,0816.4,5.00,0.00,29.7,27.0,00.0,38.5,31.4,07.0,0000.0,0008.62,0002.43,0001.84
2022-10-22 00:52:00,,0816.5,5.01,0.00,29.7,27.3,00.0,38.5,31.4,07.1,0000.0,0009.22,0002.46,0001.86
2022-10-22 00:53:00,,0816.5,5.00,0.00,29.7,27.5,00.0,38.5,31.4,07.1,0000.0,0009.60,0002.49,0001.85
2022-10-22 00:54:00,,0816.4,5.00,0.00,29.6,27.7,00.0,38.5,31.4,06.8,0000.0,0010.09,0002.50,0001.85
2022-10-22 00:55:00,,0816.4,5.00,0.00,29.6,27.8,00.0,38.5,31.4,06.7,0000.0,0009.58,0002.56,0001.87
2022-10-22 00:56:00,,0816.4,5.00,0.00,29.6,27.9,00.0,38.5,31.4,06.7,0000.0,0008.03,0002.64,0001.86
2022-10-22 00:57:00,,0816.4,5.01,0.00,29.6,28.0,00.0,38.5,31.4,06.7,0000.0,0007.62,0002.66,0001.87
2022-10-22 00:58:00,,0816.5,5.00,0.00,29.6,28.1,00.0,38.5,31.5,06.7,0000.0,0007.78,0002.67,0001.86
2022-10-22 00:59:00,,0816.5,5.00,0.00,29.6,28.2,00.0,38.5,31.5,06.7,0000.0,0007.82,0002.69,0001.86
